| time (UTC) | temp F | wind direction | speed knots | gust knots | rain 1hr in | rain 24hr in | rain mn in | humidity % | barometer mb |
| 20260507055838 | 58 | 347 | 0.9 | 3.5 | 0.00 | 0.00 | 0.00 | ||
| 20260507054832 | 59 | 4 | 0.0 | 0.0 | 0.00 | 0.00 | 0.00 | ||
| 20260507053825 | 59 | 357 | 1.7 | 2.6 | 0.00 | 0.00 | 0.00 | ||
| 20260507052821 | 59 | 8 | 0.9 | 2.6 | 0.00 | 0.00 | 0.00 | ||
| 20260507051812 | 60 | 63 | 4.3 | 1.7 | 0.00 | 0.00 | 0.00 | ||
| 20260507050805 | 62 | 340 | 0.9 | 1.7 | 0.00 | 0.00 | 0.00 | ||
| 20260507045758 | 63 | 39 | 3.5 | 3.5 | 0.00 | 0.00 | 0.00 | ||
| 20260507044751 | 63 | 4 | 2.6 | 2.6 | 0.00 | 0.00 | 0.00 | ||
| 20260507043801 | 63 | 3 | 2.6 | 2.6 | 0.00 | 0.00 | 0.00 | ||
| 20260507042745 | 64 | 328 | 3.5 | 0.9 | 0.00 | 0.00 | 0.00 | ||
| 20260507041738 | 64 | 35 | 0.9 | 1.7 | 0.00 | 0.00 | 0.00 | ||
| 20260507040728 | 65 | 63 | 2.6 | 0.0 | 0.00 | 0.00 | 0.00 | ||
| 20260507034718 | 64 | 255 | 2.6 | 3.5 | 0.00 | 0.00 | 0.00 | ||
| 20260507033713 | 64 | 298 | 1.7 | 0.9 | 0.00 | 0.00 | 0.00 | ||
| 20260507032707 | 64 | 0 | 0.0 | 0.0 | 0.00 | 0.00 | 0.00 | ||
| 20260507031701 | 64 | 240 | 0.0 | 0.0 | 0.00 | 0.00 | 0.00 | ||
| 20260507030653 | 64 | 240 | 0.0 | 0.0 | 0.00 | 0.00 | 0.00 | ||
| 20260507025648 | 64 | 240 | 0.0 | 0.0 | 0.00 | 0.00 | 0.00 | ||
| 20260507024642 | 63 | 240 | 0.0 | 0.0 | 0.00 | 0.00 | 0.00 | ||
| 20260507023641 | 63 | 240 | 0.0 | 0.0 | 0.00 | 0.00 | 0.00 | ||
| 20260507022621 | 63 | 240 | 0.0 | 0.0 | 0.00 | 0.00 | 0.00 | ||
| 20260507021613 | 64 | 240 | 0.0 | 0.0 | 0.00 | 0.00 | 0.00 | ||
| 20260507020623 | 64 | 240 | 0.0 | 0.0 | 0.00 | 0.00 | 0.00 | ||
| 20260507015604 | 65 | 240 | 0.0 | 0.0 | 0.00 | 0.00 | 0.00 | ||
| 20260507014559 | 65 | 240 | 0.0 | 0.0 | 0.00 | 0.00 | 0.00 | ||
| 20260507013557 | 65 | 240 | 0.0 | 0.0 | 0.00 | 0.00 | 0.00 | ||
| 20260507012551 | 65 | 256 | 1.7 | 1.7 | 0.00 | 0.00 | 0.00 | ||
| 20260507011543 | 65 | 267 | 1.7 | 1.7 | 0.00 | 0.00 | 0.00 | ||
| 20260507010531 | 65 | 242 | 1.7 | 1.7 | 0.00 | 0.00 | 0.00 | ||
| 20260507004530 | 65 | 212 | 0.0 | 0.0 | 0.00 | 0.00 | 0.00 | ||
| 20260507003520 | 66 | 246 | 2.6 | 2.6 | 0.00 | 0.00 | 0.00 | ||
| 20260507001515 | 66 | 252 | 5.2 | 6.1 | 0.00 | 0.00 | 0.00 | ||
| 20260507000506 | 66 | 259 | 5.2 | 4.3 | 0.00 | 0.00 | 0.00 | ||
| 20260506235459 | 66 | 238 | 6.1 | 3.5 | 0.00 | 0.00 | 0.00 | ||
| 20260506233456 | 67 | 236 | 4.3 | 3.5 | 0.00 | 0.00 | 0.00 | ||
| 20260506232448 | 68 | 232 | 3.5 | 0.0 | 0.00 | 0.00 | 0.00 | ||
| 20260506231443 | 68 | 240 | 5.2 | 5.2 | 0.00 | 0.00 | 0.00 | ||
| 20260506230435 | 68 | 255 | 7.0 | 6.1 | 0.00 | 0.00 | 0.00 | ||
| 20260506225429 | 68 | 242 | 7.0 | 7.0 | 0.00 | 0.00 | 0.00 | ||
| 20260506224424 | 69 | 246 | 8.7 | 6.1 | 0.00 | 0.00 | 0.00 | ||
| 20260506223418 | 69 | 233 | 7.8 | 5.2 | 0.00 | 0.00 | 0.00 | ||
| 20260506222414 | 69 | 255 | 7.8 | 7.8 | 0.00 | 0.00 | 0.00 | ||
| 20260506221404 | 70 | 259 | 8.7 | 7.8 | 0.00 | 0.00 | 0.00 | ||
| 20260506220355 | 70 | 243 | 7.8 | 10.4 | 0.00 | 0.00 | 0.00 | ||
| 20260506215352 | 71 | 225 | 9.6 | 8.7 | 0.00 | 0.00 | 0.00 | ||
| 20260506214336 | 70 | 270 | 7.0 | 6.1 | 0.00 | 0.00 | 0.00 | ||
| 20260506213329 | 72 | 259 | 9.6 | 10.4 | 0.00 | 0.00 | 0.00 | ||
| 20260506212323 | 71 | 252 | 8.7 | 9.6 | 0.00 | 0.00 | 0.00 | ||
| 20260506211316 | 71 | 255 | 11.3 | 9.6 | 0.00 | 0.00 | 0.00 | ||
| 20260506210311 | 73 | 256 | 11.3 | 11.3 | 0.00 | 0.00 | 0.00 | ||
| 20260506205306 | 74 | 259 | 13.9 | 14.8 | 0.00 | 0.00 | 0.00 | ||
| 20260506204255 | 75 | 277 | 10.4 | 7.8 | 0.00 | 0.00 | 0.00 | ||
| 20260506203251 | 73 | 263 | 12.2 | 11.3 | 0.00 | 0.00 | 0.00 | ||
| 20260506201242 | 73 | 253 | 9.6 | 14.8 | 0.00 | 0.00 | 0.00 | ||
| 20260506200233 | 72 | 262 | 7.8 | 9.6 | 0.00 | 0.00 | 0.00 | ||
| 20260506193219 | 71 | 250 | 11.3 | 15.6 | 0.00 | 0.00 | 0.00 | ||
| 20260506192211 | 71 | 240 | 14.8 | 13.0 | 0.00 | 0.00 | 0.00 | ||
| 20260506191207 | 71 | 236 | 11.3 | 11.3 | 0.00 | 0.00 | 0.00 | ||
| 20260506190200 | 72 | 248 | 12.2 | 9.6 | 0.00 | 0.00 | 0.00 | ||
| 20260506185143 | 71 | 219 | 18.2 | 11.3 | 0.00 | 0.00 | 0.00 | ||
| 20260506184138 | 73 | 239 | 10.4 | 12.2 | 0.00 | 0.00 | 0.00 | ||
| 20260506183136 | 74 | 231 | 15.6 | 13.0 | 0.00 | 0.00 | 0.00 | ||
| 20260506182128 | 73 | 259 | 12.2 | 18.2 | 0.00 | 0.00 | 0.00 | ||
| 20260506181118 | 72 | 246 | 13.0 | 13.0 | 0.00 | 0.00 | 0.00 | ||
| 20260506180111 | 71 | 256 | 17.4 | 7.8 | 0.00 | 0.00 | 0.00 | ||
| 20260506175111 | 71 | 252 | 13.0 | 12.2 | 0.00 | 0.00 | 0.00 | ||
| 20260506174103 | 71 | 257 | 10.4 | 15.6 | 0.00 | 0.00 | 0.00 | ||
| 20260506173055 | 71 | 218 | 18.2 | 7.8 | 0.00 | 0.00 | 0.00 | ||
| 20260506172049 | 69 | 262 | 12.2 | 9.6 | 0.00 | 0.00 | 0.00 | ||
| 20260506171040 | 68 | 240 | 12.2 | 14.8 | 0.00 | 0.00 | 0.00 | ||
| 20260506170036 | 67 | 252 | 14.8 | 23.5 | 0.00 | 0.00 | 0.00 | ||
| 20260506165032 | 71 | 250 | 13.0 | 9.6 | 0.00 | 0.00 | 0.00 | ||
| 20260506164028 | 68 | 170 | 7.8 | 3.5 | 0.00 | 0.00 | 0.00 | ||
| 20260506163018 | 64 | 250 | 4.3 | 5.2 | 0.00 | 0.00 | 0.00 | ||
| 20260506162006 | 65 | 222 | 5.2 | 3.5 | 0.00 | 0.00 | 0.00 | ||
| 20260506161002 | 66 | 231 | 4.3 | 4.3 | 0.00 | 0.00 | 0.00 | ||
| 20260506155958 | 66 | 158 | 2.6 | 0.0 | 0.00 | 0.00 | 0.00 | ||
| 20260506154951 | 66 | 184 | 2.6 | 0.0 | 0.00 | 0.00 | 0.00 | ||
| 20260506152940 | 64 | 257 | 10.4 | 10.4 | 0.00 | 0.00 | 0.00 | ||
| 20260506151935 | 65 | 274 | 7.0 | 4.3 | 0.00 | 0.00 | 0.00 | ||
| 20260506150932 | 66 | 274 | 6.1 | 8.7 | 0.00 | 0.00 | 0.00 | ||
| 20260506145923 | 65 | 222 | 7.8 | 4.3 | 0.00 | 0.00 | 0.00 | ||
| 20260506144915 | 66 | 228 | 5.2 | 9.6 | 0.00 | 0.00 | 0.00 | ||
| 20260506143906 | 66 | 252 | 9.6 | 5.2 | 0.00 | 0.00 | 0.00 | ||
| 20260506142900 | 66 | 238 | 10.4 | 11.3 | 0.00 | 0.00 | 0.00 | ||
| 20260506140842 | 68 | 215 | 9.6 | 6.1 | 0.00 | 0.00 | 0.00 | ||
| 20260506135837 | 68 | 249 | 8.7 | 7.8 | 0.00 | 0.00 | 0.00 | ||
| 20260506134829 | 67 | 238 | 9.6 | 10.4 | 0.00 | 0.00 | 0.00 | ||
| 20260506133822 | 68 | 284 | 5.2 | 7.8 | 0.00 | 0.00 | 0.00 | ||
| 20260506132817 | 68 | 252 | 11.3 | 11.3 | 0.00 | 0.00 | 0.00 | ||
| 20260506131813 | 70 | 233 | 7.8 | 1.7 | 0.00 | 0.00 | 0.00 | ||
| 20260506130808 | 69 | 246 | 8.7 | 9.6 | 0.00 | 0.00 | 0.00 | ||
| 20260506125803 | 68 | 259 | 7.0 | 7.0 | 0.00 | 0.00 | 0.00 | ||
| 20260506124758 | 68 | 232 | 7.8 | 11.3 | 0.00 | 0.00 | 0.00 | ||
| 20260506123752 | 67 | 249 | 17.4 | 13.9 | 0.00 | 0.00 | 0.00 | ||
| 20260506122748 | 68 | 242 | 10.4 | 9.6 | 0.00 | 0.00 | 0.00 | ||
| 20260506121738 | 67 | 210 | 8.7 | 9.6 | 0.00 | 0.00 | 0.00 | ||
| 20260506120732 | 68 | 245 | 12.2 | 7.8 | 0.00 | 0.00 | 0.00 | ||
| 20260506114728 | 70 | 240 | 7.8 | 17.4 | 0.00 | 0.00 | 0.00 | ||
| 20260506113718 | 68 | 236 | 10.4 | 8.7 | 0.00 | 0.00 | 0.00 | ||
| 20260506112712 | 68 | 55 | 4.3 | 0.0 | 0.00 | 0.00 | 0.00 | ||
| 20260506111708 | 66 | 263 | 7.0 | 6.1 | 0.00 | 0.00 | 0.00 | ||
| 20260506110705 | 66 | 222 | 5.2 | 3.5 | 0.00 | 0.00 | 0.00 | ||
| 20260506105658 | 67 | 211 | 5.2 | 3.5 | 0.00 | 0.00 | 0.00 | ||
| 20260506104654 | 66 | 249 | 8.7 | 7.8 | 0.00 | 0.00 | 0.00 | ||
| 20260506103647 | 69 | 214 | 6.1 | 9.6 | 0.00 | 0.00 | 0.00 | ||
| 20260506102643 | 65 | 239 | 7.8 | 7.0 | 0.00 | 0.00 | 0.00 | ||
| 20260506101636 | 64 | 252 | 6.1 | 8.7 | 0.00 | 0.00 | 0.00 | ||
| 20260506100632 | 64 | 172 | 4.3 | 3.5 | 0.00 | 0.00 | 0.00 | ||
| 20260506095629 | 64 | 221 | 7.0 | 8.7 | 0.00 | 0.00 | 0.00 | ||
| 20260506094624 | 64 | 176 | 3.5 | 6.1 | 0.00 | 0.00 | 0.00 | ||
| 20260506093617 | 64 | 245 | 5.2 | 6.1 | 0.00 | 0.00 | 0.00 | ||
| 20260506092611 | 63 | 273 | 4.3 | 9.6 | 0.00 | 0.00 | 0.00 | ||
| 20260506091607 | 64 | 218 | 6.1 | 2.6 | 0.00 | 0.00 | 0.00 | ||
| 20260506090603 | 64 | 252 | 6.1 | 5.2 | 0.00 | 0.00 | 0.00 | ||
| 20260506084553 | 64 | 242 | 4.3 | 5.2 | 0.00 | 0.00 | 0.00 | ||
| 20260506083549 | 64 | 190 | 6.1 | 1.7 | 0.00 | 0.00 | 0.00 | ||
| 20260506082542 | 64 | 263 | 2.6 | 1.7 | 0.00 | 0.00 | 0.00 | ||
| 20260506081536 | 64 | 152 | 3.5 | 0.9 | 0.00 | 0.00 | 0.00 | ||
| 20260506080536 | 64 | 198 | 6.1 | 4.3 | 0.00 | 0.00 | 0.00 | ||
| 20260506073516 | 65 | 242 | 7.0 | 7.8 | 0.00 | 0.00 | 0.00 | ||
| 20260506072513 | 65 | 260 | 8.7 | 7.8 | 0.00 | 0.00 | 0.00 | ||
| 20260506071509 | 65 | 249 | 9.6 | 10.4 | 0.00 | 0.00 | 0.00 | ||
| 20260506070505 | 65 | 283 | 6.1 | 0.9 | 0.00 | 0.00 | 0.00 | ||
| 20260506062445 | 66 | 249 | 7.0 | 13.0 | 0.00 | 0.00 | 0.00 | ||
| 20260506061438 | 67 | 248 | 8.7 | 13.0 | 0.00 | 0.00 | 0.00 |